FW8688 Weather Reports


Display with metric or nautical units.
time (UTC)temp
F
wind
direction
speed
MPH
gust
MPH
rain 1hr
in
rain 24hr
in
rain mn
in
humidity
%
barometer
mb
20260905182305 81 152 10.0 22.0 0.00 0.00 0.00 24 1014.5
20260905181805 81 148 9.0 22.0 0.00 0.00 0.00 24 1014.5
20260905181304 81 144 9.0 22.0 0.00 0.00 0.00 25 1014.6
20260905180304 80 154 10.0 22.0 0.00 0.00 0.00 24 1014.7
20260905174804 80 158 7.0 22.0 0.00 0.00 0.00 27 1014.7
20260905173804 80 151 10.0 22.0 0.00 0.00 0.00 26 1014.7
20260905172804 80 144 7.0 22.0 0.00 0.00 0.00 27 1014.7
20260905171805 79 160 9.0 22.0 0.00 0.00 0.00 27 1014.7
20260905171304 79 142 6.0 22.0 0.00 0.00 0.00 29 1014.7
20260905170805 79 143 9.0 22.0 0.00 0.00 0.00 27 1014.6
20260905170305 78 145 9.0 22.0 0.00 0.00 0.00 29 1014.6
20260905165804 78 138 11.0 22.0 0.00 0.00 0.00 29 1014.6
20260905165306 78 146 9.0 22.0 0.00 0.00 0.00 31 1015.0
20260905164804 77 149 7.0 22.0 0.00 0.00 0.00 33 1015.0
20260905164304 77 149 6.0 22.0 0.00 0.00 0.00 39 1015.0
20260905163804 76 170 5.0 22.0 0.00 0.00 0.00 40 1015.2
20260905163304 76 185 5.0 22.0 0.00 0.00 0.00 39 1015.2
20260905162804 75 138 4.0 22.0 0.00 0.00 0.00 40 1015.2
20260905162306 75 161 3.0 22.0 0.00 0.00 0.00 40 1014.8
20260905161804 74 155 4.0 22.0 0.00 0.00 0.00 42 1014.8
20260905161303 74 137 5.0 22.0 0.00 0.00 0.00 42 1014.9
20260905160804 74 140 6.0 22.0 0.00 0.00 0.00 42 1014.9
20260905160304 74 122 3.0 22.0 0.00 0.00 0.00 42 1014.9
20260905155306 73 128 3.0 22.0 0.00 0.00 0.00 45 1014.9
20260905154804 73 149 3.0 22.0 0.00 0.00 0.00 45 1014.9
20260905154304 73 120 3.0 22.0 0.00 0.00 0.00 49 1014.9
20260905153804 72 107 2.0 22.0 0.00 0.00 0.00 49 1015.0
20260905152804 72 131 1.0 22.0 0.00 0.00 0.00 51 1015.1
20260905151804 71 107 2.0 22.0 0.00 0.00 0.00 53 1015.0
20260905151304 71 98 2.0 22.0 0.00 0.00 0.00 54 1015.0
20260905150804 70 123 2.0 22.0 0.00 0.00 0.00 54 1015.0
20260905150304 70 117 2.0 22.0 0.00 0.00 0.00 54 1015.0
20260905145306 69 102 4.0 22.0 0.00 0.00 0.00 54 1014.9
20260905144304 68 92 3.0 22.0 0.00 0.00 0.00 56 1014.9
20260905143804 68 87 4.0 22.0 0.00 0.00 0.00 58 1015.0
20260905142803 67 64 2.0 22.0 0.00 0.00 0.00 63 1014.9
20260905142306 67 93 1.0 22.0 0.00 0.00 0.00 64 1014.8
20260905141804 66 93 1.0 22.0 0.00 0.00 0.00 64 1014.7
20260905141304 66 93 2.0 22.0 0.00 0.00 0.00 64 1014.7
20260905140305 65 151 2.0 22.0 0.00 0.00 0.00 64 1014.6
20260905135805 64 50 1.0 22.0 0.00 0.00 0.00 64 1014.1
20260905135306 64 46 1.0 22.0 0.00 0.00 0.00 65 1014.1
20260905134804 64 46 1.0 22.0 0.00 0.00 0.00 65 1014.1
20260905134304 64 46 1.0 22.0 0.00 0.00 0.00 64 1014.1
20260905133304 64 46 2.0 22.0 0.00 0.00 0.00 64 1014.1
20260905132804 64 46 2.0 22.0 0.00 0.00 0.00 65 1014.1
20260905131804 65 206 1.0 22.0 0.00 0.00 0.00 64 1013.9
20260905131304 65 209 3.0 22.0 0.00 0.00 0.00 62 1013.9
20260905130804 65 220 5.0 22.0 0.00 0.00 0.00 59 1013.9
20260905130304 65 218 5.0 22.0 0.00 0.00 0.00 55 1013.7
20260905125804 66 240 6.0 22.0 0.00 0.00 0.00 51 1013.7
20260905125306 67 224 6.0 22.0 0.00 0.00 0.00 48 1013.6
20260905124803 67 224 6.0 22.0 0.00 0.00 0.00 45 1013.6
20260905124304 68 249 6.0 22.0 0.00 0.00 0.00 43 1013.3
20260905123304 70 303 3.0 22.0 0.00 0.00 0.00 37 1013.3
20260905122804 71 281 2.0 22.0 0.00 0.00 0.00 32 1013.1
20260905122306 71 170 4.0 22.0 0.00 0.00 0.00 29 1013.1
20260905121804 71 150 3.0 22.0 0.00 0.00 0.00 29 1013.1
20260905121304 71 161 5.0 22.0 0.00 0.00 0.00 30 1013.0
20260905120804 71 155 5.0 22.0 0.00 0.00 0.00 31 1013.0
20260905120304 71 154 5.0 22.0 0.00 0.00 0.00 32 1013.0
20260905115804 71 157 5.0 22.0 0.00 0.00 0.00 31 1013.0
20260905115306 71 142 4.0 22.0 0.00 0.00 0.00 32 1013.0
20260905114304 71 136 6.0 22.0 0.00 0.00 0.00 31 1013.2
20260905113304 71 133 6.0 22.0 0.00 0.00 0.00 33 1013.2
20260905112804 71 115 5.0 22.0 0.00 0.00 0.00 34 1013.1
20260905111804 71 125 6.0 22.0 0.00 0.00 0.00 34 1013.0
20260905111304 71 124 8.0 22.0 0.00 0.00 0.00 35 1012.9
20260905110304 70 116 7.0 22.0 0.00 0.00 0.00 38 1012.9
20260905105804 70 122 6.0 22.0 0.00 0.00 0.00 39 1013.0
20260905104803 69 124 6.0 22.0 0.00 0.00 0.00 40 1013.0
20260905104304 70 127 5.0 22.0 0.00 0.00 0.00 40 1013.0
20260905103803 70 114 6.0 22.0 0.00 0.00 0.00 40 1012.9
20260905103303 70 124 5.0 22.0 0.00 0.00 0.00 39 1012.9
20260905102804 70 116 5.0 22.0 0.00 0.00 0.00 39 1012.9
20260905102306 70 115 6.0 22.0 0.00 0.00 0.00 40 1012.9
20260905101804 70 124 5.0 22.0 0.00 0.00 0.00 41 1012.9
20260905101304 70 131 5.0 22.0 0.00 0.00 0.00 41 1012.9
20260905100804 70 133 5.0 22.0 0.00 0.00 0.00 41 1012.8
20260905100304 70 133 6.0 22.0 0.00 0.00 0.00 41 1012.8
20260905095804 70 120 5.0 22.0 0.00 0.00 0.00 41 1012.8
20260905095306 70 142 5.0 22.0 0.00 0.00 0.00 41 1012.8
20260905094803 70 139 5.0 22.0 0.00 0.00 0.00 41 1012.6
20260905094304 70 141 6.0 22.0 0.00 0.00 0.00 41 1012.6
20260905093804 70 131 5.0 22.0 0.00 0.00 0.00 40 1012.7
20260905093304 70 122 8.0 22.0 0.00 0.00 0.00 41 1012.6
20260905092804 71 125 6.0 22.0 0.00 0.00 0.00 41 1012.5
20260905092306 71 132 8.0 22.0 0.00 0.00 0.00 42 1012.5
20260905091804 71 125 8.0 22.0 0.00 0.00 0.00 43 1012.4
20260905091303 71 121 6.0 22.0 0.00 0.00 0.00 42 1012.4
20260905090804 72 124 6.0 22.0 0.00 0.00 0.00 42 1012.4
20260905090304 72 134 6.0 22.0 0.00 0.00 0.00 41 1012.3
20260905085804 73 130 6.0 22.0 0.00 0.00 0.00 40 1012.3
20260905085306 73 137 7.0 22.0 0.00 0.00 0.00 39 1012.2
20260905084804 73 129 6.0 22.0 0.00 0.00 0.00 39 1012.2
20260905084303 73 148 7.0 22.0 0.00 0.00 0.00 38 1012.1
20260905083804 73 135 6.0 22.0 0.00 0.00 0.00 37 1012.1
20260905083303 73 136 7.0 22.0 0.00 0.00 0.00 37 1012.1
20260905082803 73 150 6.0 22.0 0.00 0.00 0.00 37 1012.0
20260905082307 74 148 6.0 22.0 0.00 0.00 0.00 37 1012.1
20260905081804 74 142 7.0 22.0 0.00 0.00 0.00 37 1012.0
20260905081304 74 148 6.0 22.0 0.00 0.00 0.00 37 1011.9
20260905080804 74 145 7.0 22.0 0.00 0.00 0.00 37 1011.9
20260905080304 74 147 7.0 22.0 0.00 0.00 0.00 36 1011.8
20260905075804 74 140 7.0 22.0 0.00 0.00 0.00 36 1011.8
20260905075306 75 135 9.0 22.0 0.00 0.00 0.00 36 1011.8
20260905074804 75 135 8.0 22.0 0.00 0.00 0.00 37 1011.7
20260905074303 75 137 10.0 22.0 0.00 0.00 0.00 37 1011.6
20260905073303 75 131 10.0 22.0 0.00 0.00 0.00 38 1011.4
20260905072803 75 131 10.0 22.0 0.00 0.00 0.00 38 1011.4
20260905072306 74 128 9.0 22.0 0.00 0.00 0.00 38 1011.3
20260905071804 74 159 7.0 22.0 0.00 0.00 0.00 39 1011.3
20260905071303 74 133 9.0 22.0 0.00 0.00 0.00 40 1011.3
20260905070804 74 118 9.0 22.0 0.00 0.00 0.00 40 1011.2
20260905070304 74 126 7.0 22.0 0.00 0.00 0.00 41 1011.2
20260905065804 74 138 8.0 22.0 0.00 0.00 0.00 41 1011.2
20260905065306 74 120 7.0 22.0 0.00 0.00 0.00 41 1011.1
20260905064804 75 125 7.0 22.0 0.00 0.00 0.00 41 1011.1
20260905064303 75 120 7.0 22.0 0.00 0.00 0.00 40 1011.0
20260905063804 75 131 6.0 22.0 0.00 0.00 0.00 37 1010.7
20260905063304 75 127 6.0 22.0 0.00 0.00 0.00 36 1010.7
20260905062804 75 132 5.0 22.0 0.00 0.00 0.00 37 1010.7
20260905062306 76 149 5.0 22.0 0.00 0.00 0.00 36 1010.6
20260905061803 76 170 4.0 7.0 0.00 0.00 0.00 37 1010.6
20260905061303 76 165 4.0 22.0 0.00 0.00 0.00 36 1010.4
20260905060804 77 193 6.0 22.0 0.00 0.00 0.00 35 1010.4
20260905060304 76 205 5.0 22.0 0.00 0.00 0.00 37 1010.4
20260905055803 76 179 7.0 22.0 0.00 0.00 0.00 35 1010.1
20260905055306 76 157 6.0 22.0 0.00 0.00 0.00 36 1010.1
20260905054804 76 172 6.0 22.0 0.00 0.00 0.00 35 1010.1
20260905054304 77 158 6.0 22.0 0.00 0.00 0.00 35 1010.1
20260905053304 77 166 5.0 22.0 0.00 0.00 0.00 34 1010.1
20260905052306 77 180 6.0 22.0 0.00 0.00 0.00 34 1009.9
20260905051804 77 178 6.0 22.0 0.00 0.00 0.00 34 1009.9
20260905051304 77 177 8.0 22.0 0.00 0.00 0.00 33 1009.9
20260905050803 77 149 5.0 22.0 0.00 0.00 0.00 35 1009.9
20260905045805 76 137 8.0 22.0 0.00 0.00 0.00 35 1009.8
20260905045306 76 125 7.0 22.0 0.00 0.00 0.00 37 1009.9
20260905044305 76 157 5.0 22.0 0.00 0.00 0.00 38 1009.9
20260905043805 77 139 7.0 22.0 0.00 0.00 0.00 37 1009.9
20260905043305 77 122 4.0 22.0 0.00 0.00 0.00 34 1009.8
20260905042805 77 111 4.0 22.0 0.00 0.00 0.00 34 1009.8
20260905041305 79 126 4.0 22.0 0.00 0.00 0.00 28 1009.5
20260905040805 79 198 2.0 22.0 0.00 0.00 0.00 24 1009.3
20260905040306 79 142 1.0 22.0 0.00 0.00 0.00 23 1009.3
20260905035805 79 201 2.0 22.0 0.00 0.00 0.00 24 1009.2
20260905035306 79 237 2.0 22.0 0.00 0.00 0.00 27 1009.2
20260905034805 79 200 3.0 22.0 0.00 0.00 0.00 29 1009.2
20260905034305 79 180 3.0 22.0 0.00 0.00 0.00 29 1009.3
20260905033805 79 176 5.0 22.0 0.00 0.00 0.00 29 1009.3
20260905032805 79 179 6.0 22.0 0.00 0.00 0.00 32 1009.4
20260905031805 80 152 6.0 22.0 0.00 0.00 0.00 35 1009.4
20260905031305 81 166 6.0 22.0 0.00 0.00 0.00 32 1008.7
20260905030805 82 155 5.0 22.0 0.00 0.00 0.00 28 1008.7
20260905030306 82 172 5.0 22.0 0.00 0.00 0.00 22 1008.7
20260905025805 83 188 5.0 22.0 0.00 0.00 0.00 22 1008.7
20260905025306 83 199 3.0 22.0 0.00 0.00 0.00 22 1008.6
20260905024805 83 203 3.0 22.0 0.00 0.00 0.00 22 1008.2
20260905024306 84 202 8.0 22.0 0.00 0.00 0.00 21 1008.2
20260905023805 84 199 7.0 22.0 0.00 0.00 0.00 22 1008.2
20260905023305 84 205 9.0 22.0 0.00 0.00 0.00 21 1008.1
20260905022805 84 222 11.0 22.0 0.00 0.00 0.00 21 1008.1
20260905022306 84 206 8.0 22.0 0.00 0.00 0.00 22 1008.1
20260905021805 84 196 10.0 22.0 0.00 0.00 0.00 22 1008.1
20260905021305 84 187 12.0 22.0 0.00 0.00 0.00 21 1008.0
20260905020805 84 193 12.0 22.0 0.00 0.00 0.00 22 1008.0
20260905020305 84 191 9.0 22.0 0.00 0.00 0.00 22 1008.0
20260905015805 84 186 11.0 22.0 0.00 0.00 0.00 22 1008.1
20260905015306 84 197 10.0 22.0 0.00 0.00 0.00 22 1008.1
20260905014805 85 187 9.0 22.0 0.00 0.00 0.00 22 1008.1
20260905014305 85 202 10.0 22.0 0.00 0.00 0.00 22 1008.1
20260905013305 85 193 12.0 22.0 0.00 0.00 0.00 21 1008.1
20260905012805 85 203 10.0 22.0 0.00 0.00 0.00 21 1008.1
20260905012306 85 193 10.0 22.0 0.00 0.00 0.00 21 1008.1
20260905011805 86 194 10.0 22.0 0.00 0.00 0.00 21 1008.0
20260905011305 86 210 9.0 22.0 0.00 0.00 0.00 21 1008.1
20260905010305 86 199 8.0 22.0 0.00 0.00 0.00 21 1008.0
20260905005805 86 200 12.0 22.0 0.00 0.00 0.00 21 1008.0
20260905005306 86 212 9.0 22.0 0.00 0.00 0.00 20 1008.0
20260905004805 86 230 12.0 22.0 0.00 0.00 0.00 20 1008.2
20260905004306 86 188 10.0 22.0 0.00 0.00 0.00 20 1008.2
20260905003805 87 206 13.0 22.0 0.00 0.00 0.00 20 1008.0
20260905003305 87 192 9.0 22.0 0.00 0.00 0.00 20 1008.0
20260905002306 87 178 8.0 22.0 0.00 0.00 0.00 20 1008.0
20260905001305 87 169 8.0 22.0 0.00 0.00 0.00 19 1008.0
20260905000805 87 182 10.0 22.0 0.00 0.00 0.00 19 1008.0
20260905000305 87 178 8.0 22.0 0.00 0.00 0.00 20 1008.1
20260904235805 87 164 9.0 22.0 0.00 0.00 0.00 20 1008.1
20260904235306 87 179 9.0 22.0 0.00 0.00 0.00 20 1008.1
20260904234805 87 178 10.0 22.0 0.00 0.00 0.00 20 1008.1
20260904234305 87 174 9.0 22.0 0.00 0.00 0.00 23 1008.1
20260904233805 87 174 9.0 22.0 0.00 0.00 0.00 21 1008.1
20260904232805 87 153 10.0 22.0 0.00 0.00 0.00 21 1008.1
20260904231805 87 151 9.0 22.0 0.00 0.00 0.00 20 1008.1
20260904230805 87 152 7.0 22.0 0.00 0.00 0.00 20 1008.1
20260904230305 88 146 9.0 22.0 0.00 0.00 0.00 19 1008.1
20260904225805 88 158 9.0 22.0 0.00 0.00 0.00 18 1008.3
20260904225306 88 158 8.0 22.0 0.00 0.00 0.00 18 1008.3
20260904224805 88 148 9.0 22.0 0.00 0.00 0.00 18 1008.1
20260904223805 87 161 9.0 22.0 0.00 0.00 0.00 17 1008.3
20260904222805 87 156 9.0 22.0 0.00 0.00 0.00 18 1008.3
20260904222306 87 145 10.0 22.0 0.00 0.00 0.00 18 1008.6
20260904221805 87 139 10.0 22.0 0.00 0.00 0.00 19 1008.6
20260904221305 87 153 10.0 22.0 0.00 0.00 0.00 18 1008.6
20260904220804 87 166 9.0 22.0 0.00 0.00 0.00 18 1008.8
20260904220305 87 156 9.0 22.0 0.00 0.00 0.00 19 1008.8
20260904215806 87 151 10.0 22.0 0.00 0.00 0.00 18 1008.9
20260904215305 87 128 10.0 22.0 0.00 0.00 0.00 18 1008.9
20260904214805 87 165 9.0 22.0 0.00 0.00 0.00 19 1009.0
20260904213805 86 163 9.0 22.0 0.00 0.00 0.00 19 1009.1
20260904213305 86 158 11.0 22.0 0.00 0.00 0.00 20 1009.2
20260904212805 86 144 9.0 22.0 0.00 0.00 0.00 20 1009.1
20260904212306 87 160 11.0 22.0 0.00 0.00 0.00 18 1009.3
20260904211805 87 154 9.0 22.0 0.00 0.00 0.00 18 1009.3
20260904211305 86 157 9.0 22.0 0.00 0.00 0.00 18 1009.3
20260904210805 86 144 9.0 22.0 0.00 0.00 0.00 17 1009.3
20260904210305 86 137 11.0 22.0 0.00 0.00 0.00 17 1009.3
20260904205805 86 155 9.0 22.0 0.00 0.00 0.00 18 1009.3
20260904205306 86 113 7.0 22.0 0.00 0.00 0.00 18 1009.5
20260904204805 85 143 10.0 22.0 0.00 0.00 0.00 20 1009.5
20260904204305 85 122 10.0 22.0 0.00 0.00 0.00 19 1009.5
20260904203805 85 129 13.0 22.0 0.00 0.00 0.00 19 1009.5
20260904203305 85 139 10.0 22.0 0.00 0.00 0.00 20 1009.5
20260904202306 85 147 9.0 22.0 0.00 0.00 0.00 20 1009.7
20260904201805 85 129 11.0 22.0 0.00 0.00 0.00 20 1009.7
20260904201305 85 143 10.0 22.0 0.00 0.00 0.00 21 1010.1
20260904200805 84 146 9.0 22.0 0.00 0.00 0.00 22 1010.1
20260904200305 84 129 10.0 22.0 0.00 0.00 0.00 21 1010.1
20260904195805 83 143 9.0 22.0 0.00 0.00 0.00 22 1010.1
20260904195306 83 144 9.0 22.0 0.00 0.00 0.00 22 1010.1
20260904194805 83 145 10.0 22.0 0.00 0.00 0.00 23 1010.5
20260904194305 83 129 13.0 22.0 0.00 0.00 0.00 23 1010.5
20260904193805 83 142 11.0 22.0 0.00 0.00 0.00 24 1010.5
20260904193304 82 143 11.0 22.0 0.00 0.00 0.00 24 1010.5
20260904192805 82 155 11.0 22.0 0.00 0.00 0.00 26 1010.5
20260904191305 81 117 12.0 22.0 0.00 0.00 0.00 26 1010.6
20260904190804 81 124 12.0 21.0 0.00 0.00 0.00 25 1010.9
20260904190305 81 133 11.0 21.0 0.00 0.00 0.00 26 1010.9
20260904185804 81 140 13.0 21.0 0.00 0.00 0.00 25 1011.3
20260904185306 81 148 13.0 21.0 0.00 0.00 0.00 26 1011.3
20260904184805 81 135 11.0 21.0 0.00 0.00 0.00 26 1011.3
20260904183805 80 132 10.0 21.0 0.00 0.00 0.00 27 1011.2
20260904182805 80 130 10.0 21.0 0.00 0.00 0.00 27 1011.2